Location: Coupvray
(48.8929°N, 2.7967°E)
Time: 21:41:27
(UTC+00:00)

Cosmos 724 - Pass Details

Date: 02 November 2020
Orbit: 851 x 943 km, 65.6° (Epoch: 01 December)

Event Time Altitude Azimuth Distance (km) Brightness Sun altitude
Exits shadow 01:47:51 13° 23° (NNE) 2,434 7.0 -46.1°
Drops below altitude 10° 01:48:49 10° 31° (NNE) 2,626 7.3 -46.0°
Sets 01:52:24 0° 51° (NE) 3,586 8.2 -45.5°
